Tracking 19854 objects as of 24-Sep-2019
HD Live streaming from Space Station
objects crossing your sky now

BREEZE-M R/B

Track BREEZE-M R/B now!


NORAD ID: 33280
Int'l Code: 2008-039C
Perigee: 4,299.6 km
Apogee: 35,927.0 km
Inclination: 23.1 °
Period: 714.9 minutes
Semi major axis: 26484 km
RCS: 8.2222 m2 (large)
Launch date: August 18, 2008
Source: Commonwealth of Independent States (former USSR) (CIS)
Launch site: TYURATAM MISSILE AND SPACE COMPLEX (TTMTR)

Note: This is a ROCKET BODY
aabbcc
Your satellite tracking list
Your tracking list is empty




NASA's NSSDC Master Catalog

Two Line Element Set (TLE):
1 33280U 08039C   19265.54701208 -.00000181  00000-0  00000+0 0  9996
2 33280  23.1160  29.9489 5970977  34.9584 358.4797  2.01428154 81626
Source of the keplerian elements: AFSPC